Location: Newark
(35.6799°N, 139.7636°E)
Time: 16:45:57
(UTC+00:00)

Transit 2A - Pass Details

Date: 06 December 2019
Orbit: 601 x 957 km, 66.7° (Epoch: 20 January)

Event Time Altitude Azimuth Distance (km) Brightness Sun altitude
Rises 22:22:39 0° 213° (SSW) 3,182 9.2 7.2°
Reaches altitude 10° 22:25:08 10° 217° (SW) 2,204 8.4 7.6°
Maximum altitude 22:30:04 63° 298° (WNW) 753 5.9 8.4°
Drops below altitude 10° 22:34:35 10° 20° (NNE) 2,030 8.1 9.1°
Sets 22:36:49 0° 24° (NNE) 2,909 8.9 9.5°
